Regional Weather Roundup
Issued by NWS Green Bay, WI

Home | Current Version | Previous Version | Graphics & Text | Print | Product List | Glossary Off
Versions: 1 2 3 4 5 6 7 8 9 10 11 12 13 14 15 16 17 18 19 20 21 22 23 24 25 26 27 28 29 30 31 32 33 34 35 36 37 38 39 40 41 42 43 44 45 46 47 48 49 50

000
ASUS43 KGRB 220311
RWRGRB

NORTH-CENTRAL AND NORTHEAST WISCONSIN REGIONAL WEATHER ROUNDUP
NATIONAL WEATHER SERVICE GREEN BAY WI
900 PM CST TUE FEB 21 2017

WIZ005-009-010>012-018-019-220400-
NORTH CENTRAL WISCONSIN

CITY           SKY/WX    TMP DP  RH WIND       PRES   REMARKS
IRONWOOD       CLOUDY    50  34  54 S8        29.68F
MANITOWISH WTR CLOUDY    44  36  72 S6        29.71F
ARBOR VITAE    CLOUDY    46  35  67 S7          N/A
EAGLE RIVER    PTCLDY    44  31  58 S3        29.73S
LAND O LAKES   CLOUDY    46  32  58 SW3       29.74S
RHINELANDER    PTCLDY    48  34  58 SW10      29.74F
PHILLIPS       MOCLDY    46  35  64 S8        29.71F
ANTIGO         MOCLDY    42  34  72 S8        29.77F
TOMAHAWK       CLOUDY    44  35  69 S3        29.75F
MERRILL        NOT AVBL
$$

WIZ013-073-220400-
NORTHEAST WISCONSIN

CITY           SKY/WX    TMP DP  RH WIND       PRES   REMARKS
IRON MOUNTAIN  CLOUDY    47  32  56 S6        29.74F
MARINETTE      CLOUDY    50  38  63 SW8       29.79F
OCONTO         CLOUDY    49  38  66 S5        29.78F
$$

WIZ017-030-035>037-045-220400-
CENTRAL WISCONSIN

CITY           SKY/WX    TMP DP  RH WIND       PRES   REMARKS
MEDFORD        CLOUDY    44  34  68 S7        29.75F
WAUSAU         PTCLDY    50  33  52 SW10      29.76S
MOSINEE        NOT AVBL
MARSHFIELD     CLOUDY    49  32  52 SW6       29.76F
WISC RAPIDS    PTCLDY    50  33  52 SW3       29.79S
STEVENS POINT  MOCLDY    49  31  51 S7        29.79S
WAUPACA        MOCLDY    48  37  64 SE5       29.79F
SHAWANO        CLOUDY    52  40  63 S6        29.77F
CLINTONVILLE   CLOUDY    46  37  71 W6        29.78F
WAUTOMA        CLOUDY    48  36  63 S5        29.81S
$$

WIZ038-039-048-051-220400-
FOX VALLEY

CITY           SKY/WX    TMP DP  RH WIND       PRES   REMARKS
NWS GREEN BAY  CLOUDY    50  40  68 S8        29.80S
APPLETON       MOCLDY    48  37  66 S8        29.79F
OSHKOSH        PTCLDY    49  40  71 S14       29.80F
FOND DU LAC    MOCLDY    50  38  63 S9        29.82F
$$

WIZ022-050-052-220400-
EAST CENTRAL WISCONSIN

CITY           SKY/WX    TMP DP  RH WIND       PRES   REMARKS
EPHRAIM        FAIR      46  39  78 S8        29.79S
WASHINGTON ISL FAIR      39  37  92 S6        29.79S
STURGEON BAY   CLOUDY    48  39  71 S8        29.81S
MANITOWOC      CLOUDY    45  41  86 S9        29.83F
SHEBOYGAN      MOCLDY    45  43  93 S7        29.83F FOG
$$

LMZ563-521-522-541>543-220400-
LAKESHORE

STATION/POSITION TIME  TEMP    WIND        PRES    VSBY  WAVE
                       AIR SEA DIR/SP/G                  HT/PER
                 (UTC) (F)     (DEG/KT/KT) (MB)    (MI)  (FT/S)
SHEBOYGAN LKSHOR 0300   44     180/ 17/ 17 1010.7F
KEWAUNEE LKSHORE 0248   40     180/ 16/ 18 1009.0F
ALGOMA MARINA    0226          210/ 11/ 13   N/A
NORTHPORT PIER   0240   41     140/  3/  6 1009.5S
SISTER BAY LKSHO 0235   44     150/ 10/ 12   N/A
CHAMBERS ISLAND  0240   50     160/  7/ 13 1008.5F
MENOMINEE LKSHOR 0248   44     160/ 12/ 15 1007.8F
$$




USA.gov is the U.S. government's official web portal to all federal, state and local government web resources and services.